Location: Bonningues
(50.7927°N, 2.0150°E)
Time: 08:20:29
(UTC+00:00)

Cosmos 1862 Rocket - Pass Details

Date: 08 August 2020
Orbit: 603 x 635 km, 82.5° (Epoch: 26 September)

Event Time Altitude Azimuth Distance (km) Brightness Sun altitude
Rises 21:28:18 0° 345° (NNW) 2,944 8.3 -15.8°
Reaches altitude 10° 21:30:36 10° 340° (NNW) 2,028 7.4 -16.0°
Maximum altitude 21:34:56 49° 266° (W) 813 4.3 -16.5°
Enters shadow 21:38:08 17° 196° (SSW) 1,586 5.3 -16.7°
